Location: Unspecified
(35.6961°N, 0.0000°E)
Time: 02:56:31
(UTC+00:00)

Explorer 11/Cluster Stage 4 - Pass Details

Date: 23 May 2019
Orbit: 467 x 1260 km, 28.8° (Epoch: 16 June)

Event Time Altitude Azimuth Distance (km) Brightness Sun altitude
Rises 05:24:14 0° 255° (WSW) 2,859 8.8 5.6°
Reaches altitude 10° 05:26:55 10° 245° (WSW) 1,842 7.9 6.1°
Maximum altitude 05:30:34 30° 183° (S) 935 6.9 6.8°
Drops below altitude 10° 05:33:50 10° 121° (ESE) 1,642 8.9 7.4°
Sets 05:36:05 0° 110° (ESE) 2,490 10.1 7.8°
